Flag for Nepal Weather past 2 weeks in Pokhara, Nepal

Now
46 °F

Passing clouds.


Feels Like: 46 °F
Forecast: 41 / 67 °F
Wind: No wind

Location: Kathmandu Airport

Current Time: Dec 18, 2014 at 10:31:27 PM

Latest Report: Dec 18, 2014 at 9:35 PM


Visibility: 4 mi

Pressure: 30.24 "Hg

Humidity: 82%

Dew point: 41 °F

Location of PokharaLocation

Historic Weather in Pokhara — Graph

°F

Pokhara temperature yesterday

Maximum temperature yesterday: 63 °F (at 2:35 PM)
Minimum temperature yesterday: 37 °F (at 6:35 AM)
Average temperature yesterday: 47 °F

Past Weeks' High & Low Weather Summary

 TemperatureHumidityPressure
High70 °F (Dec 4, 2:35 PM)100% (Dec 7, 6:35 AM)30.30 "Hg (Dec 7, 6:35 AM)
Low36 °F (Dec 12, 6:35 AM)24% (Dec 12, 2:35 PM)29.98 "Hg (Dec 7, 3:35 PM)
Average52 °F78%30.14 "Hg
* Reported Dec 3 8:35 PM — Dec 18 8:35 PM, Pokhara, Weather by CustomWeather, © 2014

Note: Actual official high and low records may vary slightly from our data, if they occured in-between our weather recording intervals... More about our weather records

Advertising

Pokhara weather history for previous 24 hours

 ConditionsComfort  
Time TempWeatherWind HumidityBarometerVisibility
8:35 PM
Dec 18
46 °FPassing clouds.No wind82%30.24 "Hg4 mi
7:35 PM48 °FPassing clouds.No wind82%30.21 "Hg4 mi
6:35 PM54 °FPassing clouds.No wind67%30.21 "Hg4 mi
5:35 PM55 °FClear.3 mph59%30.18 "Hg4 mi
4:35 PM63 °FClear.6 mph42%30.15 "Hg4 mi
3:35 PM68 °FClear.5 mph24%30.15 "Hg4 mi
2:35 PM64 °FPassing clouds.No wind34%30.15 "Hg4 mi
1:35 PM64 °FPassing clouds.No wind34%30.18 "Hg4 mi
12:35 PM63 °FPassing clouds.3 mph45%30.21 "Hg4 mi
11:35 AM57 °FPassing clouds.No wind59%30.27 "Hg4 mi
10:35 AM54 °FPassing clouds.No wind67%30.30 "Hg4 mi
9:35 AM48 °FPassing clouds.No wind76%30.30 "Hg4 mi
8:35 AM45 °FPassing clouds.No wind87%30.27 "Hg3 mi
7:35 AM37 °FFog.3 mph100%30.24 "Hg2 mi
6:35 AM39 °FFog.No wind93%30.21 "Hg2 mi
4:35 AM37 °FClear.6 mph93%30.15 "Hg4 mi
3:35 AM39 °FClear.3 mph93%30.15 "Hg4 mi
2:35 AM41 °FClear.No wind93%30.15 "Hg4 mi
1:35 AM39 °FClear.No wind93%30.15 "Hg4 mi
12:35 AM41 °FPassing clouds.No wind93%30.15 "Hg4 mi
11:35 PM
Dec 17
43 °FPassing clouds.No wind93%30.15 "Hg4 mi
10:35 PM43 °FPassing clouds.No wind93%30.15 "Hg4 mi
Weather by CustomWeather, © 2014

See weather overviewHow to use our weather pages